Weather History for Warroad, MN

Change the Weather History Date:

Tuesday, July 2, 2013

  Actual Average Record
Temperature  
Mean Temperature 70 °F -  
Max Temperature 84 °F 76 °F 92 °F (1989)
Min Temperature 55 °F 55 °F 41 °F (1969)
Cooling Degree Days 4    
Growing Degree Days 20 (Base 50)    
Moisture  
Dew Point 60 °F    
Average Humidity 69    
Maximum Humidity 94    
Minimum Humidity 42    
Precipitation  
Precipitation 0.00 in - - ()
Sea Level Pressure  
Sea Level Pressure 30.12 in    
Wind  
Wind Speed 2 mph (SSE)    
Max Wind Speed 12 mph    
Max Gust Speed -    
Visibility 9 miles    
Events Thunderstorm    
Averages and records for this station are not official NWS values.
T = Trace of Precipitation, MM = Missing Value Source: NWS Daily Summary

Daily Weather History Graph

Daily Weather History Graph

Search for Another Location

Airport:

Trip Planner

Search our weather history database for the weather conditions in past years. The results will help you decide how hot, cold, wet, or windy it might be!

Date:

Astronomy

Jul. 02, 2013 Rise Set
Actual Time 5:22 AM CDT 9:28 PM CDT
Civil Twilight 4:40 AM CDT 10:10 PM CDT
Nautical Twilight 3:40 AM CDT 11:09 PM CDT
Astronomical Twilight 1:36 AM CDT 1:07 AM CDT
Moon 1:41 AM CDT (7/2) 4:30 PM CDT (7/2)
Length of Visible Light 17h 30m
Length of Day
16h 05m
Waning Crescent, 26% of the Moon is Illuminated
Jul 2
Waning Crescent
Jul 8
New
Jul 15
First Quarter
Jul 22
Full
Jul 29
Last Quarter

Hourly Weather History & Observations

Time (CDT) Temp. Heat Index Dew Point Humidity Pressure Visibility Wind Dir Wind Speed Gust Speed Precip Events Conditions
12:14 AM 62.6 °F - 57.2 °F 82% 30.17 in 10.0 mi Calm Calm - N/A   Clear
12:34 AM 62.6 °F - 57.2 °F 82% 30.17 in 10.0 mi Calm Calm - N/A   Clear
12:54 AM 60.8 °F - 55.4 °F 82% 30.17 in 10.0 mi Calm Calm - N/A   Clear
1:14 AM 60.8 °F - 55.4 °F 82% 30.17 in 10.0 mi Calm Calm - N/A   Clear
1:34 AM 59.0 °F - 55.4 °F 88% 30.16 in 7.0 mi Calm Calm - N/A   Clear
1:54 AM 59.0 °F - 55.4 °F 88% 30.16 in 7.0 mi Calm Calm - N/A   Clear
2:14 AM 57.2 °F - 53.6 °F 88% 30.16 in 7.0 mi Calm Calm - N/A   Clear
2:34 AM 57.2 °F - 53.6 °F 88% 30.16 in 7.0 mi Calm Calm - N/A   Clear
2:54 AM 57.2 °F - 53.6 °F 88% 30.16 in 7.0 mi Calm Calm - N/A   Clear
3:14 AM 57.2 °F - 53.6 °F 88% 30.16 in 7.0 mi SW 3.5 mph - N/A   Clear
3:34 AM 57.2 °F - 53.6 °F 88% 30.16 in 10.0 mi West 3.5 mph - N/A   Clear
3:54 AM 57.2 °F - 53.6 °F 88% 30.16 in 7.0 mi Calm Calm - N/A   Clear
4:14 AM 55.4 °F - 53.6 °F 94% 30.16 in 7.0 mi West 4.6 mph - N/A   Clear
4:34 AM 57.2 °F - 53.6 °F 88% 30.16 in 7.0 mi Calm Calm - N/A   Clear
4:54 AM 55.4 °F - 51.8 °F 88% 30.16 in 7.0 mi Calm Calm - N/A   Clear
5:14 AM 55.4 °F - 51.8 °F 88% 30.16 in 7.0 mi Calm Calm - N/A   Clear
5:34 AM 55.4 °F - 51.8 °F 88% 30.16 in 7.0 mi Calm Calm - N/A   Clear
5:54 AM 55.4 °F - 51.8 °F 88% 30.16 in 5.0 mi Calm Calm - N/A   Clear
6:14 AM 55.4 °F - 51.8 °F 88% 30.16 in 5.0 mi Calm Calm - N/A   Clear
6:34 AM 57.2 °F - 53.6 °F 88% 30.16 in 7.0 mi Calm Calm - N/A   Clear
6:54 AM 60.8 °F - 55.4 °F 82% 30.16 in 7.0 mi Calm Calm - N/A   Clear
7:14 AM 62.6 °F - 59.0 °F 88% 30.16 in 7.0 mi Calm Calm - N/A   Clear
7:34 AM 64.4 °F - 59.0 °F 83% 30.16 in 7.0 mi WSW 3.5 mph - N/A   Clear
7:54 AM 66.2 °F - 60.8 °F 83% 30.16 in 7.0 mi Calm Calm - N/A   Clear
8:14 AM 68.0 °F - 60.8 °F 78% 30.16 in 10.0 mi Calm Calm - N/A   Clear
8:34 AM 69.8 °F - 60.8 °F 73% 30.16 in 7.0 mi Calm Calm - N/A   Clear
8:54 AM 71.6 °F - 60.8 °F 69% 30.16 in 7.0 mi Calm Calm - N/A   Clear
9:14 AM 73.4 °F - 60.8 °F 65% 30.16 in 10.0 mi Calm Calm - N/A   Clear
9:34 AM 75.2 °F - 62.6 °F 65% 30.16 in 7.0 mi Calm Calm - N/A   Clear
9:54 AM 75.2 °F - 62.6 °F 65% 30.15 in 7.0 mi Calm Calm - N/A   Clear
10:14 AM 78.8 °F - 62.6 °F 57% 30.15 in 7.0 mi Calm Calm - N/A   Clear
10:34 AM 78.8 °F - 62.6 °F 57% 30.15 in 7.0 mi Calm Calm - N/A   Clear
10:54 AM 80.6 °F 81.5 °F 60.8 °F 51% 30.15 in 7.0 mi Calm Calm - N/A   Clear
11:14 AM 80.6 °F 81.8 °F 62.6 °F 54% 30.14 in 10.0 mi ENE 4.6 mph - N/A   Clear
11:34 AM 80.6 °F 82.3 °F 64.4 °F 58% 30.14 in 10.0 mi East 4.6 mph - N/A   Clear
11:54 AM 80.6 °F 81.8 °F 62.6 °F 54% 30.14 in 7.0 mi East 5.8 mph - N/A   Scattered Clouds
12:14 PM 80.6 °F 81.5 °F 60.8 °F 51% 30.14 in 10.0 mi East 5.8 mph - N/A   Scattered Clouds
12:34 PM 80.6 °F 81.5 °F 60.8 °F 51% 30.14 in 10.0 mi East 4.6 mph - N/A   Scattered Clouds
12:54 PM 80.6 °F 81.5 °F 60.8 °F 51% 30.13 in 7.0 mi ESE 8.1 mph - N/A   Clear
1:14 PM 82.4 °F 82.9 °F 60.8 °F 48% 30.12 in 10.0 mi SE 4.6 mph - N/A   Clear
1:34 PM 80.6 °F 81.5 °F 60.8 °F 51% 30.12 in 10.0 mi East 5.8 mph - N/A   Clear
1:54 PM 80.6 °F 81.5 °F 60.8 °F 51% 30.12 in 10.0 mi ENE 10.4 mph - N/A   Scattered Clouds
2:14 PM 82.4 °F 83.4 °F 62.6 °F 51% 30.11 in 10.0 mi East 6.9 mph - N/A   Scattered Clouds
2:34 PM 80.6 °F 81.8 °F 62.6 °F 54% 30.11 in 10.0 mi East 6.9 mph - N/A   Scattered Clouds
2:54 PM 80.6 °F 82.3 °F 64.4 °F 58% 30.10 in 10.0 mi East 8.1 mph - N/A   Mostly Cloudy
3:14 PM 82.4 °F 83.4 °F 62.6 °F 51% 30.10 in 10.0 mi ESE 8.1 mph - N/A   Scattered Clouds
3:34 PM 82.4 °F 83.4 °F 62.6 °F 51% - 10.0 mi SE 8.1 mph - N/A   Clear
3:52 PM 84.2 °F 84.4 °F 60.8 °F 45% 30.08 in 10.0 mi North - - N/A   Scattered Clouds
4:14 PM 84.2 °F 84.4 °F 60.8 °F 45% 30.08 in 10.0 mi WSW 11.5 mph - N/A   Clear
4:34 PM 84.2 °F 84.4 °F 60.8 °F 45% 30.08 in 10.0 mi SW 8.1 mph - N/A   Clear
4:54 PM 84.2 °F 83.8 °F 59.0 °F 42% 30.07 in 10.0 mi WSW 9.2 mph - N/A   Clear
5:13 PM 84.2 °F 84.4 °F 60.8 °F 45% 30.07 in 10.0 mi WSW 5.8 mph - N/A   Clear
5:34 PM 84.2 °F 84.4 °F 60.8 °F 45% 30.07 in 10.0 mi WSW 8.1 mph - N/A   Clear
5:54 PM 84.2 °F 84.4 °F 60.8 °F 45% 30.06 in 10.0 mi West 5.8 mph - N/A   Clear
6:11 PM 82.4 °F 82.9 °F 60.8 °F 48% 30.06 in 10.0 mi WSW 6.9 mph - N/A   Scattered Clouds
6:34 PM 82.4 °F 82.9 °F 60.8 °F 48% 30.06 in 10.0 mi West 5.8 mph - N/A   Clear
6:54 PM 82.4 °F 82.9 °F 60.8 °F 48% 30.06 in 10.0 mi West 6.9 mph - N/A   Unknown
7:13 PM 80.6 °F 82.3 °F 64.4 °F 58% 30.06 in 10.0 mi NNE 6.9 mph - N/A   Scattered Clouds
7:34 PM 80.6 °F 82.3 °F 64.4 °F 58% 30.06 in - North 3.5 mph - N/A   Clear
7:54 PM 80.6 °F 81.8 °F 62.6 °F 54% 30.05 in 10.0 mi North 3.5 mph - N/A   Clear
8:14 PM 78.8 °F - 64.4 °F 61% 30.05 in 10.0 mi Calm Calm - N/A   Clear
8:33 PM 77.0 °F - 66.2 °F 69% 30.05 in 10.0 mi Calm Calm - N/A   Clear
8:54 PM 75.2 °F - 66.2 °F 73% 30.05 in 10.0 mi Calm Calm - N/A   Scattered Clouds
9:14 PM 73.4 °F - 66.2 °F 78% 30.05 in 10.0 mi Calm Calm - N/A   Scattered Clouds
9:33 PM 71.6 °F - 66.2 °F 83% 30.04 in 10.0 mi Calm Calm - N/A Thunderstorm Clear
9:54 PM 71.6 °F - 66.2 °F 83% 30.05 in 10.0 mi Calm Calm - N/A   Clear
10:14 PM 69.8 °F - 64.4 °F 83% 30.05 in 10.0 mi NW 4.6 mph - N/A   Scattered Clouds
10:30 PM 71.6 °F - 62.6 °F 73% 30.04 in 10.0 mi Calm Calm - N/A   Scattered Clouds
10:54 PM 68.0 °F - 62.6 °F 83% 30.04 in 10.0 mi Calm Calm - N/A   Scattered Clouds
11:14 PM 69.8 °F - 62.6 °F 78% 30.04 in 10.0 mi SSE 4.6 mph - N/A   Clear
11:34 PM 69.8 °F - 62.6 °F 78% 30.04 in 10.0 mi Calm Calm - N/A   Clear
11:54 PM 66.2 °F - 62.6 °F 88% 30.04 in 10.0 mi Calm Calm - N/A   Scattered Clouds